• In Belarus
  • List of Countries
  • For 7 days
  • Water Temperature
  • Satellite Maps
  • Weather Map
  • Weather Widgets
  • user-avatar
    Login

    Hourly Weather Kavala

    Today, 21 January, Monday

    Time Temperature Precipitation Wind Pressure Humidity
    00:00 +7°C° 0 mm 2 mps 759 mmHg 83%
    01:00 +7°C° 0 mm 2 mps 759 mmHg 81%
    02:00 +7°C° 0 mm 2 mps 759 mmHg 80%
    03:00 +6°C° 0 mm 2 mps 759 mmHg 79%
    04:00 +6°C° 0 mm 2 mps 759 mmHg 77%
    05:00 +6°C° 0 mm 2 mps 759 mmHg 76%
    06:00 +6°C° 0 mm 2 mps 759 mmHg 75%
    07:00 +6°C° 0 mm 2 mps 759 mmHg 75%
    08:00 +6°C° 0 mm 2 mps 759 mmHg 74%
    09:00 +7°C° 0 mm 2 mps 760 mmHg 69%
    10:00 +9°C° 0 mm 2 mps 760 mmHg 65%
    11:00 +12°C° 0 mm 1 mps 760 mmHg 61%
    12:00 +13°C° 0 mm 2 mps 760 mmHg 61%
    13:00 +13°C° 0 mm 2 mps 760 mmHg 61%
    14:00 +14°C° 0 mm 2 mps 760 mmHg 62%
    15:00 +13°C° 0 mm 2 mps 760 mmHg 67%
    16:00 +12°C° 0 mm 2 mps 760 mmHg 73%
    17:00 +10°C° 0 mm 2 mps 760 mmHg 79%
    18:00 +10°C° 0.1 mm 2 mps 760 mmHg 82%
    19:00 +9°C° 0.1 mm 2 mps 761 mmHg 85%
    20:00 +8°C° 0.1 mm 2 mps 761 mmHg 89%
    21:00 +8°C° 0.1 mm 3 mps 761 mmHg 87%
    22:00 +8°C° 0.1 mm 3 mps 761 mmHg 85%
    23:00 +9°C° 0.1 mm 3 mps 761 mmHg 84%

    Tomorrow, 22 January, Tuesday

    Time Temperature Precipitation Wind Pressure Humidity
    00:00 +7°C° 0.5 mm 4 mps 761 mmHg 85%
    01:00 +7°C° 0.5 mm 4 mps 761 mmHg 85%
    02:00 +7°C° 0.5 mm 4 mps 761 mmHg 86%
    03:00 +7°C° 0.8 mm 4 mps 761 mmHg 87%
    04:00 +6°C° 0.8 mm 4 mps 761 mmHg 88%
    05:00 +6°C° 0.8 mm 4 mps 760 mmHg 89%
    06:00 +6°C° 0.5 mm 4 mps 760 mmHg 89%
    07:00 +6°C° 0.5 mm 4 mps 760 mmHg 89%
    08:00 +6°C° 0.5 mm 4 mps 760 mmHg 90%
    09:00 +6°C° 0.4 mm 4 mps 760 mmHg 88%
    10:00 +6°C° 0.4 mm 4 mps 760 mmHg 87%
    11:00 +7°C° 0.4 mm 4 mps 760 mmHg 86%
    12:00 +7°C° 0.5 mm 4 mps 759 mmHg 86%
    13:00 +7°C° 0.5 mm 4 mps 759 mmHg 86%
    14:00 +7°C° 0.5 mm 4 mps 758 mmHg 86%
    15:00 +7°C° 0.4 mm 4 mps 757 mmHg 87%
    16:00 +7°C° 0.4 mm 4 mps 757 mmHg 89%
    17:00 +7°C° 0.4 mm 4 mps 757 mmHg 90%
    18:00 +7°C° 0.8 mm 4 mps 756 mmHg 91%
    19:00 +7°C° 0.8 mm 4 mps 756 mmHg 91%
    20:00 +8°C° 0.8 mm 3 mps 755 mmHg 92%
    21:00 +8°C° 1.3 mm 3 mps 755 mmHg 93%
    22:00 +9°C° 1.3 mm 3 mps 755 mmHg 94%
    23:00 +9°C° 1.3 mm 2 mps 754 mmHg 94%

    Day after tomorrow, 23 January, Wednesday

    Time Temperature Precipitation Wind Pressure Humidity
    00:00 +9°C° 1.1 mm 3 mps 753 mmHg 95%
    01:00 +9°C° 1.1 mm 3 mps 753 mmHg 95%
    02:00 +9°C° 1.1 mm 3 mps 752 mmHg 95%
    03:00 +9°C° 0.7 mm 2 mps 752 mmHg 95%
    04:00 +9°C° 0.7 mm 2 mps 751 mmHg 95%
    05:00 +9°C° 0.7 mm 2 mps 751 mmHg 95%
    06:00 +8°C° 0.1 mm 2 mps 751 mmHg 94%
    07:00 +8°C° 0.1 mm 2 mps 751 mmHg 94%
    08:00 +8°C° 0.1 mm 2 mps 751 mmHg 93%
    09:00 +9°C° 0 mm 2 mps 751 mmHg 88%
    10:00 +11°C° 0 mm 3 mps 751 mmHg 83%
    11:00 +12°C° 0 mm 3 mps 751 mmHg 78%
    12:00 +13°C° 0.1 mm 3 mps 751 mmHg 74%
    13:00 +13°C° 0.1 mm 4 mps 751 mmHg 69%
    14:00 +14°C° 0.1 mm 4 mps 751 mmHg 65%
    15:00 +13°C° 0.2 mm 4 mps 751 mmHg 70%
    16:00 +12°C° 0.2 mm 3 mps 751 mmHg 74%
    17:00 +12°C° 0.2 mm 2 mps 751 mmHg 79%
    18:00 +12°C° 0.6 mm 2 mps 751 mmHg 83%
    19:00 +10°C° 0.6 mm 2 mps 751 mmHg 86%
    20:00 +10°C° 0.6 mm 2 mps 751 mmHg 90%
    21:00 +10°C° 1.8 mm 2 mps 751 mmHg 92%
    22:00 +10°C° 1.8 mm 3 mps 751 mmHg 93%
    23:00 +10°C° 1.8 mm 3 mps 751 mmHg 95%

    24 January, Thursday

    Time Temperature Precipitation Wind Pressure Humidity
    00:00 +10°C° 3.2 mm 3 mps 751 mmHg 95%
    01:00 +10°C° 3.2 mm 4 mps 750 mmHg 96%
    02:00 +10°C° 3.2 mm 4 mps 750 mmHg 96%
    03:00 +10°C° 2.4 mm 4 mps 749 mmHg 96%
    04:00 +10°C° 2.4 mm 4 mps 749 mmHg 96%
    05:00 +11°C° 2.4 mm 3 mps 748 mmHg 95%
    06:00 +10°C° 1.9 mm 3 mps 748 mmHg 95%
    07:00 +10°C° 1.9 mm 3 mps 748 mmHg 95%
    08:00 +10°C° 1.9 mm 3 mps 748 mmHg 95%
    09:00 +10°C° 4.2 mm 4 mps 748 mmHg 95%
    10:00 +10°C° 4.2 mm 5 mps 748 mmHg 95%
    11:00 +10°C° 4.2 mm 6 mps 747 mmHg 95%
    12:00 +9°C° 8.3 mm 6 mps 747 mmHg 94%
    13:00 +8°C° 8.3 mm 6 mps 746 mmHg 93%
    14:00 +8°C° 8.3 mm 5 mps 746 mmHg 92%
    15:00 +8°C° 7.3 mm 5 mps 745 mmHg 92%
    16:00 +8°C° 7.3 mm 5 mps 745 mmHg 92%
    17:00 +8°C° 7.3 mm 4 mps 745 mmHg 93%
    18:00 +8°C° 2.5 mm 5 mps 745 mmHg 91%
    19:00 +8°C° 2.5 mm 5 mps 745 mmHg 89%
    20:00 +9°C° 2.5 mm 5 mps 745 mmHg 87%
    21:00 +9°C° 0.6 mm 5 mps 746 mmHg 86%
    22:00 +9°C° 0.6 mm 6 mps 746 mmHg 86%
    23:00 +9°C° 0.6 mm 6 mps 746 mmHg 86%

    25 January, Friday

    Time Temperature Precipitation Wind Pressure Humidity
    00:00 +9°C° 0.8 mm 5 mps 746 mmHg 88%
    01:00 +10°C° 0.8 mm 4 mps 747 mmHg 91%
    02:00 +10°C° 0.8 mm 2 mps 747 mmHg 93%
    03:00 +10°C° 0 mm 2 mps 747 mmHg 94%
    04:00 +10°C° 0 mm 2 mps 747 mmHg 94%
    05:00 +11°C° 0 mm 1 mps 747 mmHg 95%
    06:00 +9°C° 0.2 mm 2 mps 747 mmHg 95%
    07:00 +9°C° 0.2 mm 3 mps 747 mmHg 94%
    08:00 +9°C° 0.2 mm 3 mps 747 mmHg 94%
    09:00 +8°C° 3.1 mm 4 mps 747 mmHg 94%
    10:00 +9°C° 3.1 mm 5 mps 747 mmHg 94%
    11:00 +9°C° 3.1 mm 6 mps 746 mmHg 94%
    12:00 +9°C° 3.6 mm 6 mps 746 mmHg 93%
    13:00 +9°C° 3.6 mm 7 mps 745 mmHg 92%
    14:00 +9°C° 3.6 mm 7 mps 745 mmHg 91%
    15:00 +9°C° 0.8 mm 5 mps 745 mmHg 88%
    16:00 +10°C° 0.8 mm 4 mps 745 mmHg 85%
    17:00 +10°C° 0.8 mm 3 mps 745 mmHg 83%
    18:00 +9°C° 0.7 mm 2 mps 745 mmHg 84%
    19:00 +9°C° 0.7 mm 2 mps 746 mmHg 85%
    20:00 +9°C° 0.7 mm 1 mps 746 mmHg 86%
    21:00 +8°C° 0.5 mm 2 mps 746 mmHg 86%
    22:00 +8°C° 0.5 mm 2 mps 746 mmHg 87%
    23:00 +7°C° 0.5 mm 3 mps 747 mmHg 87%

    26 January, Saturday

    Time Temperature Precipitation Wind Pressure Humidity
    00:00 +7°C° 0.1 mm 3 mps 747 mmHg 86%
    01:00 +7°C° 0.1 mm 3 mps 747 mmHg 85%
    02:00 +7°C° 0.1 mm 3 mps 747 mmHg 84%
    03:00 +7°C° 0.6 mm 3 mps 747 mmHg 84%
    04:00 +7°C° 0.6 mm 3 mps 747 mmHg 85%
    05:00 +6°C° 0.6 mm 4 mps 746 mmHg 85%
    06:00 +6°C° 2.4 mm 4 mps 747 mmHg 85%
    07:00 +6°C° 2.4 mm 4 mps 747 mmHg 85%
    08:00 +6°C° 2.4 mm 4 mps 747 mmHg 85%
    09:00 +7°C° 1 mm 4 mps 747 mmHg 82%
    10:00 +7°C° 1 mm 4 mps 748 mmHg 79%
    11:00 +8°C° 1 mm 4 mps 748 mmHg 77%
    12:00 +8°C° 0.2 mm 4 mps 748 mmHg 75%
    13:00 +10°C° 0.2 mm 4 mps 748 mmHg 73%
    14:00 +10°C° 0.2 mm 3 mps 748 mmHg 71%
    15:00 +10°C° 0.1 mm 3 mps 748 mmHg 72%
    16:00 +10°C° 0.1 mm 3 mps 748 mmHg 74%
    17:00 +9°C° 0.1 mm 3 mps 749 mmHg 75%
    18:00 +9°C° 0 mm 3 mps 749 mmHg 75%
    19:00 +8°C° 0 mm 2 mps 750 mmHg 76%
    20:00 +8°C° 0 mm 2 mps 750 mmHg 76%
    21:00 +7°C° 0 mm 2 mps 751 mmHg 76%
    22:00 +7°C° 0 mm 2 mps 751 mmHg 76%
    23:00 +7°C° 0 mm 2 mps 751 mmHg 76%
    Show more